Time,TemperatureF,DewpointF,PressureIn,WindDirection,WindDirectionDegrees,WindSpeedMPH,WindSpeedGustMPH,Humidity,HourlyPrecipIn,Conditions,Clouds,dailyrainin,SoftwareType,DateUTC
2013-03-03 00:01:00,31.0,24.0,30.03,South,180,2.0,3.0,75,0.00,,,0.00,,2013-03-03 07:01:00,
2013-03-03 00:11:00,31.0,24.0,30.03,South,180,2.0,3.0,75,0.00,,,0.00,,2013-03-03 07:11:00,
2013-03-03 00:21:00,31.0,24.0,30.02,South,180,1.0,2.0,75,0.00,,,0.00,,2013-03-03 07:21:00,
2013-03-03 00:31:00,30.0,23.0,30.01,ESE,112,2.0,2.0,76,0.00,,,0.00,,2013-03-03 07:31:00,
2013-03-03 00:42:00,30.0,23.0,30.01,ESE,112,2.0,2.0,76,0.00,,,0.00,,2013-03-03 07:42:00,
2013-03-03 00:51:00,32.0,23.0,30.01,SSE,157,1.0,2.0,68,0.00,,,0.00,,2013-03-03 07:51:00,
2013-03-03 01:01:00,31.0,23.0,30.01,SSE,157,1.0,2.0,72,0.00,,,0.00,,2013-03-03 08:01:00,
2013-03-03 01:11:00,31.0,23.0,30.01,SSE,157,1.0,2.0,72,0.00,,,0.00,,2013-03-03 08:11:00,
2013-03-03 01:21:00,29.0,23.0,30.00,South,180,3.0,4.0,78,0.00,,,0.00,,2013-03-03 08:21:00,
2013-03-03 01:31:00,29.0,24.0,30.00,SSW,202,4.0,4.0,80,0.00,,,0.00,,2013-03-03 08:31:00,
2013-03-03 01:41:00,29.0,24.0,30.00,SSW,202,4.0,4.0,80,0.00,,,0.00,,2013-03-03 08:41:00,
2013-03-03 01:53:00,29.0,23.0,29.98,South,180,2.0,2.0,79,0.00,,,0.00,,2013-03-03 08:53:00,
2013-03-03 02:01:00,32.0,23.0,29.98,SE,135,3.0,3.0,70,0.00,,,0.00,,2013-03-03 09:01:00,
2013-03-03 02:11:00,32.0,23.0,29.98,SE,135,3.0,3.0,70,0.00,,,0.00,,2013-03-03 09:11:00,
2013-03-03 02:21:00,32.0,23.0,29.98,SSE,157,2.0,4.0,69,0.00,,,0.00,,2013-03-03 09:21:00,
2013-03-03 02:31:00,33.0,24.0,29.98,SSE,157,2.0,2.0,69,0.00,,,0.00,,2013-03-03 09:31:00,
2013-03-03 02:41:00,33.0,24.0,29.98,SSE,157,2.0,2.0,69,0.00,,,0.00,,2013-03-03 09:41:00,
2013-03-03 02:51:00,32.0,23.0,29.98,South,180,2.0,2.0,69,0.00,,,0.00,,2013-03-03 09:51:00,
2013-03-03 03:01:00,32.0,24.0,29.97,SSE,157,3.0,3.0,71,0.00,,,0.00,,2013-03-03 10:01:00,
2013-03-03 03:11:00,32.0,24.0,29.97,SSE,157,3.0,3.0,71,0.00,,,0.00,,2013-03-03 10:11:00,
2013-03-03 03:21:00,30.0,23.0,29.96,South,180,2.0,2.0,76,0.00,,,0.00,,2013-03-03 10:21:00,
2013-03-03 03:31:00,32.0,24.0,29.95,SSE,157,3.0,4.0,71,0.00,,,0.00,,2013-03-03 10:31:00,
2013-03-03 03:41:00,32.0,24.0,29.95,SSE,157,3.0,4.0,71,0.00,,,0.00,,2013-03-03 10:41:00,
2013-03-03 03:51:00,30.0,24.0,29.95,SSW,202,3.0,3.0,77,0.00,,,0.00,,2013-03-03 10:51:00,
2013-03-03 04:01:00,31.0,25.0,29.94,SSE,157,2.0,3.0,77,0.00,,,0.00,,2013-03-03 11:01:00,
2013-03-03 04:11:00,31.0,25.0,29.94,SSE,157,2.0,3.0,77,0.00,,,0.00,,2013-03-03 11:11:00,
2013-03-03 04:21:00,31.0,25.0,29.94,South,180,2.0,3.0,79,0.00,,,0.00,,2013-03-03 11:21:00,
2013-03-03 04:31:00,31.0,26.0,29.93,SW,225,3.0,4.0,80,0.00,,,0.00,,2013-03-03 11:31:00,
2013-03-03 04:41:00,31.0,26.0,29.93,SW,225,3.0,4.0,80,0.00,,,0.00,,2013-03-03 11:41:00,
2013-03-03 04:52:00,31.0,25.0,29.93,South,180,3.0,4.0,79,0.00,,,0.00,,2013-03-03 11:52:00,
2013-03-03 05:01:00,31.0,26.0,29.92,SSW,202,4.0,5.0,81,0.00,,,0.00,,2013-03-03 12:01:00,
2013-03-03 05:11:00,31.0,26.0,29.92,SSW,202,4.0,5.0,81,0.00,,,0.00,,2013-03-03 12:11:00,
2013-03-03 05:21:00,32.0,26.0,29.92,SSW,202,0.0,0.0,78,0.00,,,0.00,,2013-03-03 12:21:00,
2013-03-03 05:31:00,34.0,25.0,29.92,SE,135,0.0,2.0,68,0.00,,,0.00,,2013-03-03 12:31:00,
2013-03-03 05:42:00,34.0,25.0,29.92,SE,135,0.0,2.0,68,0.00,,,0.00,,2013-03-03 12:42:00,
2013-03-03 05:52:00,34.0,26.0,29.91,ESE,112,1.0,2.0,71,0.00,,,0.00,,2013-03-03 12:52:00,
2013-03-03 06:01:00,32.0,25.0,29.92,SE,135,0.0,0.0,75,0.00,,,0.00,,2013-03-03 13:01:00,
2013-03-03 06:11:00,32.0,25.0,29.92,SE,135,0.0,0.0,75,0.00,,,0.00,,2013-03-03 13:11:00,
2013-03-03 06:21:00,32.0,25.0,29.91,South,180,2.0,2.0,75,0.00,,,0.00,,2013-03-03 13:21:00,
2013-03-03 06:31:00,32.0,25.0,29.90,South,180,0.0,0.0,76,0.00,,,0.00,,2013-03-03 13:31:00,
2013-03-03 06:41:00,32.0,25.0,29.90,South,180,0.0,0.0,76,0.00,,,0.00,,2013-03-03 13:41:00,
2013-03-03 06:51:00,31.0,25.0,29.90,South,180,0.0,0.0,79,0.00,,,0.00,,2013-03-03 13:51:00,
2013-03-03 07:01:00,32.0,25.0,29.90,West,270,2.0,2.0,74,0.00,,,0.00,,2013-03-03 14:01:00,
2013-03-03 07:11:00,32.0,25.0,29.90,West,270,2.0,2.0,74,0.00,,,0.00,,2013-03-03 14:11:00,
2013-03-03 07:21:00,33.0,25.0,29.90,SSW,202,1.0,2.0,72,0.00,,,0.00,,2013-03-03 14:21:00,
2013-03-03 07:31:00,33.0,26.0,29.92,South,180,2.0,2.0,74,0.00,,,0.00,,2013-03-03 14:31:00,
2013-03-03 07:42:00,33.0,26.0,29.92,South,180,2.0,2.0,74,0.00,,,0.00,,2013-03-03 14:42:00,
2013-03-03 07:52:00,33.0,26.0,29.90,SSE,157,3.0,4.0,76,0.00,,,0.00,,2013-03-03 14:52:00,
2013-03-03 08:01:00,34.0,26.0,29.91,SSE,157,1.0,2.0,72,0.00,,,0.00,,2013-03-03 15:01:00,
2013-03-03 08:11:00,34.0,26.0,29.91,SSE,157,1.0,2.0,72,0.00,,,0.00,,2013-03-03 15:11:00,
2013-03-03 08:21:00,36.0,29.0,29.91,East,90,3.0,4.0,75,0.00,,,0.00,,2013-03-03 15:21:00,
2013-03-03 08:31:00,37.0,27.0,29.91,ESE,112,3.0,4.0,68,0.00,,,0.00,,2013-03-03 15:31:00,
2013-03-03 08:41:00,37.0,27.0,29.91,ESE,112,3.0,4.0,68,0.00,,,0.00,,2013-03-03 15:41:00,
2013-03-03 08:51:00,38.0,28.0,29.92,SSE,157,4.0,4.0,67,0.00,,,0.00,,2013-03-03 15:51:00,
2013-03-03 09:01:00,40.0,28.0,29.93,SSE,157,2.0,3.0,61,0.00,,,0.00,,2013-03-03 16:01:00,
2013-03-03 09:11:00,40.0,28.0,29.93,SSE,157,2.0,3.0,61,0.00,,,0.00,,2013-03-03 16:11:00,
2013-03-03 09:21:00,39.0,28.0,29.92,South,180,2.0,3.0,65,0.00,,,0.00,,2013-03-03 16:21:00,
2013-03-03 09:31:00,39.0,29.0,29.92,SSW,202,1.0,2.0,67,0.00,,,0.00,,2013-03-03 16:31:00,
2013-03-03 09:41:00,39.0,29.0,29.92,SSW,202,1.0,2.0,67,0.00,,,0.00,,2013-03-03 16:41:00,
2013-03-03 09:51:00,39.0,29.0,29.92,West,270,1.0,2.0,68,0.00,,,0.00,,2013-03-03 16:51:00,
2013-03-03 10:01:00,40.0,28.0,29.93,West,270,2.0,2.0,63,0.00,,,0.00,,2013-03-03 17:01:00,
2013-03-03 10:11:00,41.0,29.0,29.93,SW,225,1.0,1.0,63,0.00,,,0.00,,2013-03-03 17:11:00,
2013-03-03 10:21:00,41.0,29.0,29.93,SW,225,1.0,1.0,63,0.00,,,0.00,,2013-03-03 17:21:00,
2013-03-03 10:32:00,41.0,28.0,29.92,SSE,157,2.0,2.0,60,0.00,,,0.00,,2013-03-03 17:32:00,
2013-03-03 10:41:00,41.0,28.0,29.92,SSE,157,2.0,2.0,60,0.00,,,0.00,,2013-03-03 17:41:00,
2013-03-03 10:52:00,42.0,30.0,29.94,North,360,6.0,9.0,63,0.00,,,0.00,,2013-03-03 17:52:00,
2013-03-03 11:01:00,42.0,29.0,29.94,NW,315,3.0,4.0,60,0.00,,,0.00,,2013-03-03 18:01:00,
2013-03-03 11:11:00,42.0,29.0,29.94,NW,315,3.0,4.0,60,0.00,,,0.00,,2013-03-03 18:11:00,
2013-03-03 11:21:00,43.0,28.0,29.94,NE,45,3.0,4.0,54,0.00,,,0.00,,2013-03-03 18:21:00,
2013-03-03 11:31:00,43.0,29.0,29.95,NE,45,2.0,4.0,57,0.00,,,0.00,,2013-03-03 18:31:00,
2013-03-03 11:41:00,43.0,29.0,29.95,NE,45,2.0,4.0,57,0.00,,,0.00,,2013-03-03 18:41:00,
2013-03-03 11:52:00,44.0,28.0,29.94,NE,45,2.0,3.0,54,0.00,,,0.00,,2013-03-03 18:52:00,
2013-03-03 12:01:00,46.0,29.0,29.94,East,90,6.0,7.0,52,0.00,,,0.00,,2013-03-03 19:01:00,
2013-03-03 12:11:00,47.0,29.0,29.93,East,90,6.0,7.0,49,0.00,,,0.00,,2013-03-03 19:11:00,
2013-03-03 12:21:00,47.0,29.0,29.93,East,90,6.0,7.0,49,0.00,,,0.00,,2013-03-03 19:21:00,
2013-03-03 12:31:00,48.0,29.0,29.93,East,90,8.0,11.0,48,0.00,,,0.00,,2013-03-03 19:31:00,
2013-03-03 12:42:00,48.0,29.0,29.93,East,90,8.0,11.0,48,0.00,,,0.00,,2013-03-03 19:42:00,
2013-03-03 12:51:00,49.0,29.0,29.91,East,90,7.0,8.0,45,0.00,,,0.00,,2013-03-03 19:51:00,
2013-03-03 13:01:00,49.0,29.0,29.90,East,90,3.0,4.0,46,0.00,,,0.00,,2013-03-03 20:01:00,
2013-03-03 13:11:00,49.0,29.0,29.90,East,90,3.0,4.0,46,0.00,,,0.00,,2013-03-03 20:11:00,
2013-03-03 13:21:00,50.0,29.0,29.90,East,90,2.0,3.0,45,0.00,,,0.00,,2013-03-03 20:21:00,
2013-03-03 13:31:00,51.0,29.0,29.89,NE,45,2.0,3.0,43,0.00,,,0.00,,2013-03-03 20:31:00,
2013-03-03 13:42:00,51.0,29.0,29.89,NE,45,2.0,3.0,43,0.00,,,0.00,,2013-03-03 20:42:00,
2013-03-03 13:52:00,52.0,28.0,29.89,NE,45,0.0,0.0,39,0.00,,,0.00,,2013-03-03 20:52:00,
2013-03-03 14:01:00,53.0,27.0,29.90,North,360,1.0,2.0,36,0.00,,,0.00,,2013-03-03 21:01:00,
2013-03-03 14:11:00,53.0,27.0,29.90,North,360,1.0,2.0,36,0.00,,,0.00,,2013-03-03 21:11:00,
2013-03-03 14:21:00,53.0,25.0,29.90,WNW,292,2.0,2.0,33,0.00,,,0.00,,2013-03-03 21:21:00,
2013-03-03 14:31:00,54.0,26.0,29.89,West,270,2.0,4.0,34,0.00,,,0.00,,2013-03-03 21:31:00,
2013-03-03 14:41:00,54.0,26.0,29.89,West,270,2.0,4.0,34,0.00,,,0.00,,2013-03-03 21:41:00,
2013-03-03 14:51:00,54.0,25.0,29.89,WNW,292,2.0,4.0,32,0.00,,,0.00,,2013-03-03 21:51:00,
2013-03-03 15:01:00,54.0,28.0,29.89,West,270,2.0,5.0,36,0.00,,,0.00,,2013-03-03 22:01:00,
2013-03-03 15:11:00,54.0,28.0,29.89,West,270,2.0,5.0,36,0.00,,,0.00,,2013-03-03 22:11:00,
2013-03-03 15:21:00,55.0,25.0,29.89,SW,225,7.0,10.0,31,0.00,,,0.00,,2013-03-03 22:21:00,
2013-03-03 15:31:00,54.0,26.0,29.89,SW,225,7.0,10.0,34,0.00,,,0.00,,2013-03-03 22:31:00,
2013-03-03 15:41:00,54.0,26.0,29.89,SW,225,7.0,10.0,34,0.00,,,0.00,,2013-03-03 22:41:00,
2013-03-03 15:52:00,54.0,26.0,29.89,SW,225,10.0,12.0,34,0.00,,,0.00,,2013-03-03 22:52:00,
2013-03-03 16:01:00,53.0,25.0,29.88,WSW,247,7.0,9.0,34,0.00,,,0.00,,2013-03-03 23:01:00,
2013-03-03 16:11:00,53.0,25.0,29.88,WSW,247,7.0,9.0,34,0.00,,,0.00,,2013-03-03 23:11:00,
2013-03-03 16:21:00,53.0,26.0,29.88,SW,225,5.0,6.0,35,0.00,,,0.00,,2013-03-03 23:21:00,
2013-03-03 16:31:00,52.0,25.0,29.88,SW,225,7.0,8.0,35,0.00,,,0.00,,2013-03-03 23:31:00,
2013-03-03 16:41:00,52.0,25.0,29.88,SW,225,7.0,8.0,35,0.00,,,0.00,,2013-03-03 23:41:00,
2013-03-03 16:52:00,52.0,25.0,29.87,SW,225,6.0,8.0,35,0.00,,,0.00,,2013-03-03 23:52:00,
2013-03-03 17:01:00,51.0,25.0,29.87,WSW,247,9.0,14.0,36,0.00,,,0.00,,2013-03-04 00:01:00,
2013-03-03 17:11:00,51.0,25.0,29.87,WSW,247,9.0,14.0,36,0.00,,,0.00,,2013-03-04 00:11:00,
2013-03-03 17:21:00,51.0,25.0,29.87,SW,225,8.0,12.0,36,0.00,,,0.00,,2013-03-04 00:21:00,
2013-03-03 17:31:00,50.0,24.0,29.85,SW,225,6.0,8.0,36,0.00,,,0.00,,2013-03-04 00:31:00,
2013-03-03 17:41:00,50.0,24.0,29.85,SW,225,6.0,8.0,36,0.00,,,0.00,,2013-03-04 00:41:00,
2013-03-03 17:51:00,50.0,25.0,29.85,SW,225,4.0,6.0,37,0.00,,,0.00,,2013-03-04 00:51:00,
2013-03-03 18:01:00,50.0,24.0,29.85,WSW,247,7.0,11.0,36,0.00,,,0.00,,2013-03-04 01:01:00,
2013-03-03 18:11:00,50.0,24.0,29.85,WSW,247,7.0,11.0,36,0.00,,,0.00,,2013-03-04 01:11:00,
2013-03-03 18:21:00,49.0,24.0,29.85,WSW,247,3.0,4.0,37,0.00,,,0.00,,2013-03-04 01:21:00,
2013-03-03 18:31:00,49.0,24.0,29.85,WSW,247,5.0,8.0,37,0.00,,,0.00,,2013-03-04 01:31:00,
2013-03-03 18:41:00,49.0,24.0,29.85,WSW,247,5.0,8.0,37,0.00,,,0.00,,2013-03-04 01:41:00,
2013-03-03 18:51:00,49.0,24.0,29.85,NW,315,3.0,4.0,37,0.00,,,0.00,,2013-03-04 01:51:00,
2013-03-03 19:01:00,48.0,24.0,29.85,NW,315,2.0,3.0,38,0.00,,,0.00,,2013-03-04 02:01:00,
2013-03-03 19:11:00,48.0,24.0,29.85,NW,315,2.0,2.0,38,0.00,,,0.00,,2013-03-04 02:11:00,
2013-03-03 19:22:00,48.0,24.0,29.85,NW,315,2.0,2.0,38,0.00,,,0.00,,2013-03-04 02:22:00,
2013-03-03 19:31:00,46.0,26.0,29.85,North,360,4.0,6.0,45,0.00,,,0.00,,2013-03-04 02:31:00,
2013-03-03 19:41:00,46.0,26.0,29.85,North,360,4.0,6.0,45,0.00,,,0.00,,2013-03-04 02:41:00,
2013-03-03 19:52:00,46.0,27.0,29.84,North,360,2.0,4.0,48,0.00,,,0.00,,2013-03-04 02:52:00,
2013-03-03 20:01:00,45.0,29.0,29.83,North,360,7.0,9.0,53,0.00,,,0.00,,2013-03-04 03:01:00,
2013-03-03 20:11:00,45.0,29.0,29.83,North,360,7.0,9.0,53,0.00,,,0.00,,2013-03-04 03:11:00,
2013-03-03 20:21:00,44.0,28.0,29.82,North,360,2.0,4.0,54,0.00,,,0.00,,2013-03-04 03:21:00,
2013-03-03 20:31:00,43.0,31.0,29.82,West,270,3.0,4.0,62,0.00,,,0.00,,2013-03-04 03:31:00,
2013-03-03 20:41:00,42.0,30.0,29.81,West,270,2.0,3.0,63,0.00,,,0.00,,2013-03-04 03:41:00,
2013-03-03 20:52:00,42.0,30.0,29.81,West,270,2.0,3.0,63,0.00,,,0.00,,2013-03-04 03:52:00,
2013-03-03 21:01:00,42.0,30.0,29.81,West,270,2.0,2.0,62,0.00,,,0.00,,2013-03-04 04:01:00,
2013-03-03 21:11:00,42.0,30.0,29.81,West,270,2.0,2.0,62,0.00,,,0.00,,2013-03-04 04:11:00,
2013-03-03 21:21:00,42.0,30.0,29.81,West,270,2.0,4.0,63,0.00,,,0.00,,2013-03-04 04:21:00,
2013-03-03 21:31:00,42.0,31.0,29.81,West,270,4.0,6.0,64,0.00,,,0.00,,2013-03-04 04:31:00,
2013-03-03 21:41:00,42.0,31.0,29.81,West,270,4.0,6.0,64,0.00,,,0.00,,2013-03-04 04:41:00,
2013-03-03 21:51:00,43.0,31.0,29.81,West,270,4.0,6.0,62,0.00,,,0.00,,2013-03-04 04:51:00,
2013-03-03 22:01:00,42.0,31.0,29.80,WSW,247,3.0,4.0,64,0.00,,,0.00,,2013-03-04 05:01:00,
2013-03-03 22:11:00,42.0,31.0,29.80,WSW,247,3.0,4.0,64,0.00,,,0.00,,2013-03-04 05:11:00,
2013-03-03 22:22:00,42.0,31.0,29.80,West,270,3.0,6.0,64,0.00,,,0.00,,2013-03-04 05:22:00,
2013-03-03 22:31:00,42.0,31.0,29.80,West,270,2.0,4.0,65,0.00,,,0.00,,2013-03-04 05:31:00,
2013-03-03 22:42:00,42.0,32.0,29.80,West,270,2.0,4.0,67,0.00,,,0.00,,2013-03-04 05:42:00,
2013-03-03 22:52:00,42.0,32.0,29.80,West,270,2.0,4.0,67,0.00,,,0.00,,2013-03-04 05:52:00,
2013-03-03 23:01:00,42.0,31.0,29.80,NW,315,5.0,6.0,65,0.00,,,0.00,,2013-03-04 06:01:00,
2013-03-03 23:11:00,42.0,31.0,29.80,NW,315,5.0,6.0,65,0.00,,,0.00,,2013-03-04 06:11:00,
2013-03-03 23:21:00,42.0,31.0,29.81,NW,315,2.0,2.0,65,0.00,,,0.00,,2013-03-04 06:21:00,
2013-03-03 23:31:00,41.0,32.0,29.81,West,270,4.0,6.0,70,0.00,,,0.00,,2013-03-04 06:31:00,
2013-03-03 23:42:00,41.0,32.0,29.81,West,270,4.0,6.0,70,0.00,,,0.00,,2013-03-04 06:42:00,
2013-03-03 23:51:00,41.0,33.0,29.81,NW,315,6.0,7.0,72,0.00,,,0.00,,2013-03-04 06:51:00,